Weather History for Shreveport, LA

Change the Weather History Date:

Wednesday, November 23, 2011

  Actual Average Record
Temperature  
Mean Temperature 51 °F 54 °F  
Max Temperature 61 °F 65 °F 84 °F (1973)
Min Temperature 41 °F 43 °F 24 °F (1975)
Degree Days  
Heating Degree Days 14 12  
Month to date heating degree days 134 194  
Since 1 July heating degree days 202 280  
Cooling Degree Days 0 0  
Month to date cooling degree days 68 23  
Year to date cooling degree days 3404 2472  
Growing Degree Days 1 (Base 50)    
Moisture  
Dew Point 48 °F    
Average Humidity 82    
Maximum Humidity 100    
Minimum Humidity 64    
Precipitation  
Precipitation 0.00 in 0.14 in 3.85 in (1873)
Month to date precipitation 3.31 3.47  
Year to date precipitation 24.25 45.58  
Snow  
Snow 0.00 in - - ()
Month to date snowfall 0.0  
Since 1 July snowfall 0.0  
Since 1 September snowfall 0.0  
Snow Depth 0.00 in    
Sea Level Pressure  
Sea Level Pressure 30.26 in    
Wind  
Wind Speed 5 mph (NE)    
Max Wind Speed 12 mph    
Max Gust Speed 20 mph    
Visibility 9 miles    
Events Fog    
T = Trace of Precipitation, MM = Missing Value Source: NWS Daily Summary

Daily Weather History Graph

Daily Weather History Graph

Search for Another Location

Airport:

Trip Planner

Search our weather history database for the weather conditions in past years. The results will help you decide how hot, cold, wet, or windy it might be!

Date:

Astronomy

Nov. 23, 2011 Rise Set
Actual Time 6:51 AM CST 5:11 PM CST
Civil Twilight 6:25 AM CST 5:37 PM CST
Nautical Twilight 5:55 AM CST 6:07 PM CST
Astronomical Twilight 5:25 AM CST 6:37 PM CST
Moon 4:59 AM CST (11/23) 3:52 PM CST (11/23)
Length of Visible Light 11h 12m
Length of Day
10h 19m
Waning Crescent, 3% of the Moon is Illuminated
Nov 23
Waning Crescent
Nov 25
New
Dec 2
First Quarter
Dec 10
Full
Dec 17
Last Quarter

Hourly Weather History & Observations

Time (CST) Temp. Dew Point Humidity Pressure Visibility Wind Dir Wind Speed Gust Speed Precip Events Conditions
12:56 AM 46.9 °F 46.9 °F 100% 30.19 in 10.0 mi WNW 4.6 mph - N/A   Clear
1:56 AM 46.9 °F 46.9 °F 100% 30.19 in 10.0 mi WNW 5.8 mph - N/A   Clear
2:56 AM 46.9 °F 46.9 °F 100% 30.20 in 10.0 mi NW 4.6 mph - N/A   Clear
3:56 AM 46.9 °F 46.9 °F 100% 30.20 in 10.0 mi North 4.6 mph - N/A   Clear
4:56 AM 46.0 °F 46.0 °F 100% 30.22 in 10.0 mi Calm Calm - N/A   Clear
5:56 AM 45.0 °F 45.0 °F 100% 30.23 in 10.0 mi Calm Calm - N/A   Clear
6:56 AM 42.1 °F 42.1 °F 100% 30.25 in 6.0 mi Calm Calm - N/A Fog Shallow Fog
7:56 AM 46.0 °F 46.0 °F 100% 30.27 in 7.0 mi Calm Calm - N/A   Clear
8:56 AM 50.0 °F 48.2 °F 94% 30.29 in 10.0 mi Calm Calm - N/A   Partly Cloudy
9:56 AM 53.1 °F 48.9 °F 86% 30.30 in 10.0 mi ESE 3.5 mph - N/A   Partly Cloudy
10:42 AM 53.6 °F 48.2 °F 82% 30.29 in 10.0 mi East 5.8 mph - N/A   Mostly Cloudy
10:54 AM 53.6 °F 48.2 °F 82% 30.29 in 10.0 mi ESE 5.8 mph - N/A   Scattered Clouds
10:56 AM 54.0 °F 48.9 °F 83% 30.28 in 10.0 mi ESE 8.1 mph - N/A   Scattered Clouds
11:56 AM 54.0 °F 48.9 °F 83% 30.28 in 10.0 mi East 6.9 mph - N/A   Partly Cloudy
12:56 PM 57.0 °F 48.0 °F 72% 30.25 in 10.0 mi ENE 4.6 mph - N/A   Partly Cloudy
1:56 PM 59.0 °F 48.9 °F 69% 30.23 in 10.0 mi NE 5.8 mph - N/A   Partly Cloudy
2:56 PM 60.1 °F 48.9 °F 67% 30.22 in 10.0 mi North 6.9 mph - N/A   Partly Cloudy
3:56 PM 59.0 °F 50.0 °F 72% 30.23 in 10.0 mi NNE 8.1 mph - N/A   Partly Cloudy
4:56 PM 55.9 °F 48.9 °F 77% 30.24 in 10.0 mi NNE 6.9 mph - N/A   Clear
5:56 PM 53.1 °F 48.9 °F 86% 30.26 in 10.0 mi NNE 6.9 mph - N/A   Clear
6:56 PM 51.8 °F 48.2 °F 88% 30.27 in 7.0 mi NNE 8.1 mph - N/A   Clear
7:56 PM 48.9 °F 48.0 °F 97% 30.29 in 10.0 mi NE 6.9 mph - N/A   Clear
8:33 PM 48.2 °F 48.2 °F 100% 30.29 in 7.0 mi ENE 10.4 mph - N/A   Mostly Cloudy
8:51 PM 48.2 °F 48.2 °F 100% 30.30 in 7.0 mi ENE 6.9 mph - N/A   Overcast
8:56 PM 48.9 °F 48.0 °F 97% 30.30 in 7.0 mi East 9.2 mph - N/A   Overcast
9:56 PM 48.9 °F 48.9 °F 100% 30.31 in 7.0 mi ENE 6.9 mph - N/A   Overcast
10:56 PM 48.9 °F 48.0 °F 97% 30.30 in 7.0 mi NE 8.1 mph - N/A   Overcast
11:56 PM 48.0 °F 48.0 °F 100% 30.30 in 7.0 mi ESE 6.9 mph - N/A   Overcast